Location: Unspecified
(50.7693°N, 0.0000°E)
Time: 09:55:38
(UTC+00:00)

A-11 Canister half - Pass Details

Date: 27 June 2019
Orbit: 1526 x 1683 km, 47.3° (Epoch: 18 July)

Event Time Altitude Azimuth Distance (km) Brightness Sun altitude
Rises 05:04:11 0° 252° (WSW) 4,751 10.9 9.2°
Reaches altitude 10° 05:07:18 10° 250° (WSW) 3,749 10.4 9.6°
Maximum altitude 05:16:39 70° 170° (S) 1,621 9.3 11.0°
Drops below altitude 10° 05:25:51 10° 89° (E) 3,695 12.6 12.3°
Sets 05:28:54 0° 88° (E) 4,679 13.0 12.8°
